Lexington Weather

Lexington, Massachusetts, USA

25°F
1/21/2021 10:28am 
  • Lexington Conditions: Clear
  • Temperature: 25.2°F / -3.8°CWarmer 1.8°F than last hour.
  • Dew Point: 14.0°FIncreased 1.4°Fsince last hour.
  • Relative Humidity: 62%Decreased 1.0% since last hour.
  • Wind: Calm, 10-min avg: Calm, gust: 3 mph
  • Barometer: 29.77 in Steady
  • Visibility: 10 miles
  • Snow Today: 0.0 in
  •   

Regional Weather Roundup
for Boston / Norton, MA

        
000
ASUS41 KBOX 141204
RWRBOX

REGIONAL WEATHER ROUNDUP
NATIONAL WEATHER SERVICE BOSTON/NORTON MA
700 AM EST THU JAN 14 2021

NOTE:  "FAIR" INDICATES FEW OR NO CLOUDS BELOW 12,000 FEET WITH NO 
SIGNIFICANT WEATHER AND/OR OBSTRUCTIONS TO VISIBILITY.

MAZALL-141300-
EASTERN MASSACHUSETTS
  
CITY           SKY/WX    TMP DP  RH WIND       PRES   REMARKS
BOSTON         CLOUDY    33  26  75 SW5       29.88R WCI  29          
6HR MIN TEMP:  31; 6HR MAX TEMP:  34;                                

BEVERLY        PTCLDY    28  24  85 CALM      29.86R                  
LAWRENCE       CLOUDY    30  25  81 CALM      29.88R                  
BEDFORD        CLOUDY    27  23  85 CALM      29.86R                  
BLUE HILL        N/A     33  26  75 S8        29.83R WCI  26          
NORWOOD        CLOUDY    31  26  82 CALM      29.87R                  
MARSHFIELD     CLOUDY    30  28  93 CALM      29.87S                  
PLYMOUTH       CLOUDY    31  27  85 CALM      29.86R                  
TAUNTON        CLOUDY    32  28  85 CALM      29.86S                  
NEW BEDFORD    CLOUDY    32  29  88 CALM      29.86S                  
$$

MAZALL-141300-
CAPE COD AND THE ISLANDS
  
CITY           SKY/WX    TMP DP  RH WIND       PRES   REMARKS
FALMOUTH       CLOUDY    30  27  86 CALM      29.87R                  
HYANNIS        CLOUDY    33  29  85 CALM      29.86S                  
CHATHAM        CLOUDY    35  31  85 CALM      29.89R                  
PROVINCETOWN   CLEAR     32  29  88 S3        29.89R                  
NANTUCKET      CLEAR     39  36  89 S6        29.88S                  
MARTHAS VNYRD  CLEAR     34  29  82 CALM      29.87S                  
$$
 
MAZALL-141300-
CENTRAL AND WESTERN MASSACHUSETTS
  
CITY           SKY/WX    TMP DP  RH WIND       PRES   REMARKS
WORCESTER      CLOUDY    31  24  75 CALM      29.82R                  
6HR MIN TEMP:  28; 6HR MAX TEMP:  33;                                

FITCHBURG      CLOUDY    29  27  92 CALM      29.85S                  
ORANGE         CLOUDY    28  25  88 CALM      29.84R                  
SPRINGFIELD    CLOUDY    30  26  85 CALM      29.84R                  
WESTFIELD      CLOUDY    30  26  85 CALM      29.84R                  
NORTH ADAMS    CLOUDY    28  23  81 CALM      29.82R                  
PITTSFIELD     CLOUDY    26  24  92 CALM      29.79R                  
$$
 
RIZALL-141300-
RHODE ISLAND
  
CITY           SKY/WX    TMP DP  RH WIND       PRES   REMARKS
PROVIDENCE     MOCLDY    35  29  78 CALM      29.87R                  
6HR MIN TEMP:  32; 6HR MAX TEMP:  35;                                

NEWPORT        CLOUDY    39  34  82 S3        29.86R HAZE             
BLOCK ISLAND   PTCLDY    41  37  86 SW7       29.87R                  
SMITHFIELD     MOCLDY    31  29  92 CALM      29.86R                  
WESTERLY       PTCLDY    30  27  88 N3        29.86R                  
$$
 
CTZALL-141300-
CONNECTICUT
  
CITY           SKY/WX    TMP DP  RH WIND       PRES   REMARKS
BRADLEY INTL   CLOUDY    32  26  78 CALM      29.85R                  
6HR MIN TEMP:  30; 6HR MAX TEMP:  33;                                

HARTFORD       CLOUDY    34  28  79 CALM      29.86R                  
BRIDGEPORT     PTCLDY    34  30  85 CALM      29.86R                  
DANBURY        MOCLDY    30  26  85 CALM      29.85R                  
GROTON         PTCLDY    33  29  85 CALM      29.86R                  
NEW HAVEN      MOCLDY    34  30  85 CALM      29.85S FOG              
CHESTER        FAIR      37  34  87 CALM      29.84S                  
MERIDEN        MOCLDY    32  27  81 CALM      29.85R                  
WILLIMANTIC    CLOUDY    30  26  85 NE3       29.86R                  
OXFORD         CLOUDY    33  30  88 SW3       29.83R FOG              
$$

MEZ002-015-021-024-NHZ003-005-008-011-012-014-VTZ005-008-141300-
NORTHERN NEW ENGLAND
  
CITY           SKY/WX    TMP DP  RH WIND       PRES   REMARKS
PORTLAND ME    PTCLDY    28  23  81 CALM      29.85S                  
6HR MIN TEMP:  25; 6HR MAX TEMP:  35;                                

BANGOR ME      CLOUDY    30  25  81 CALM      29.84S                  
CONCORD NH     CLOUDY    26  22  84 CALM      29.84S                  
MANCHESTER NH  CLOUDY    29  23  78 CALM      29.84R                  
NASHUA NH      CLOUDY    28  27  96 CALM      29.86R                  
PORTSMOUTH NH  MOCLDY    29  23  77 CALM      29.84S                  
JAFFREY NH     CLOUDY    27  23  85 CALM      29.81R                  
KEENE NH       CLOUDY    26  24  92 CALM      29.84R                  
BURLINGTON VT  CLOUDY    34  25  69 S6        29.79S WCI  29          
MT. WASHINGTON NOT AVBL                                               
$$

NYZ052-076-141300-
EASTERN NEW YORK
  
CITY           SKY/WX    TMP DP  RH WIND       PRES   REMARKS
ALBANY         CLOUDY    30  26  85 S3        29.81S                  
6HR MIN TEMP:  28; 6HR MAX TEMP:  31;                                

NEW YORK CITY  MOCLDY    41  30  65 SW3       29.85R                  
6HR MIN TEMP:  38; 6HR MAX TEMP:  42;                                

$$
 
ANZALL-141300-
MARINE OBSERVATIONS
  
STATION/POSITION TIME  TEMP    WIND        PRES    VSBY  WAVE
                       AIR SEA DIR/SP/G                  HT/PER
                 (UTC) (F)     (DEG/KT/KT) (MB)    (MI)  (FT/S)
BOSTON BUOY      1140   38     230/  8/ 10 1012.0R
BUZZARDS BAY     1100          200/  6/  6 1012.1R
NANTUCKET SOUND  1140      41  180/  4/  6   N/A
MASS BAY-STELLWA 1104   39     250/  8/ 10 1010.1S  1 7/8  1/ 3
ISLE OF SHOALS   1100   36     240/  9/  9 1010.5F
S OF BLOCK IS    1126      47                N/A           3/ 5
$$

......................KEY.........................
  SKY/WX - SKY CONDITION/PRESENT WEATHER
  TMP    - TEMPERATURE IN FAHRENHEIT
  DWPT   - DEWPOINT IN FAHRENHEIT
  RH     - RELATIVE HUMIDITY IN PERCENT
  WIND   - DIRECTION AND SPEED IN MPH
  PRES   - MEAN SEA LEVEL PRESSURE IN INCHES OF HG
  WCI    - WIND CHILL INDEX
  VSB    - VISIBILITY IN MILES
  HX     - HEAT INDEX
  TC     - TEMPERATURE IN CELSIUS
  VRB    - VARIABLE WIND DIRECTION
  N/A    - NOT AVAILABLE
  
      

Other recent Regional Weather Roundups

Thu Jan 21, 9:04am

Thu Jan 21, 7:04am

Thu Jan 21, 6:04am

Thu Jan 21, 5:04am

Thu Jan 21, 4:04am

Thu Jan 21, 3:04am

Thu Jan 21, 2:04am

Thu Jan 21, 1:04am

Thu Jan 21, 12:04am

Wed Jan 20, 11:04pm

Wed Jan 20, 10:05pm

Wed Jan 20, 9:04pm

Wed Jan 20, 8:04pm

Wed Jan 20, 7:04pm

Wed Jan 20, 6:05pm

Wed Jan 20, 5:05pm

Wed Jan 20, 1:04pm

Wed Jan 20, 12:04pm

Wed Jan 20, 11:04am

Wed Jan 20, 10:04am

Wed Jan 20, 9:05am

Wed Jan 20, 8:04am

Wed Jan 20, 7:04am

Wed Jan 20, 6:04am

Wed Jan 20, 5:04am

Wed Jan 20, 4:04am

Wed Jan 20, 3:05am

Wed Jan 20, 2:04am

Wed Jan 20, 1:04am

Wed Jan 20, 12:04am

Tue Jan 19, 11:04pm

Tue Jan 19, 10:04pm

Tue Jan 19, 9:04pm

Tue Jan 19, 8:04pm

Tue Jan 19, 7:04pm

Tue Jan 19, 6:05pm

Tue Jan 19, 5:04pm

Tue Jan 19, 4:05pm

Tue Jan 19, 3:04pm

Tue Jan 19, 2:04pm

Tue Jan 19, 1:04pm

Tue Jan 19, 12:05pm

Tue Jan 19, 11:04am

Tue Jan 19, 10:05am

Tue Jan 19, 9:04am

Tue Jan 19, 8:04am

Tue Jan 19, 7:04am

Tue Jan 19, 6:04am

Tue Jan 19, 5:04am

Tue Jan 19, 4:04am

Tue Jan 19, 3:04am

Tue Jan 19, 2:04am

Tue Jan 19, 1:04am

Tue Jan 19, 12:04am

Mon Jan 18, 11:04pm

Mon Jan 18, 10:04pm

Mon Jan 18, 9:04pm

Mon Jan 18, 8:05pm

Mon Jan 18, 7:04pm

Mon Jan 18, 6:05pm

Mon Jan 18, 5:04pm

Mon Jan 18, 4:04pm

Mon Jan 18, 3:04pm

Mon Jan 18, 2:04pm

Mon Jan 18, 1:04pm

Mon Jan 18, 12:04pm

Mon Jan 18, 11:04am

Mon Jan 18, 10:04am

Mon Jan 18, 9:04am

Mon Jan 18, 8:04am

Mon Jan 18, 7:04am

Mon Jan 18, 6:04am

Mon Jan 18, 5:04am

Mon Jan 18, 4:04am

Mon Jan 18, 3:04am

Mon Jan 18, 2:04am

Mon Jan 18, 1:04am

Mon Jan 18, 12:04am

Sun Jan 17, 11:04pm

Sun Jan 17, 10:04pm

Sun Jan 17, 9:04pm

Sun Jan 17, 8:04pm

Sun Jan 17, 7:04pm

Sun Jan 17, 6:04pm

Sun Jan 17, 5:04pm

Sun Jan 17, 4:05pm

Sun Jan 17, 3:04pm

Sun Jan 17, 2:04pm

Sun Jan 17, 1:04pm

Sun Jan 17, 12:04pm

Sun Jan 17, 11:04am

Sun Jan 17, 10:04am

Sun Jan 17, 9:04am

Sun Jan 17, 8:04am

Sun Jan 17, 7:04am

Sun Jan 17, 6:04am

Sun Jan 17, 5:04am

Sun Jan 17, 4:04am

Sun Jan 17, 3:04am

Sun Jan 17, 2:04am

Sun Jan 17, 1:04am

Sun Jan 17, 12:04am

Sat Jan 16, 11:05pm

Sat Jan 16, 10:04pm

Sat Jan 16, 9:04pm

Sat Jan 16, 8:05pm

Sat Jan 16, 7:04pm

Sat Jan 16, 6:04pm

Sat Jan 16, 5:05pm

Sat Jan 16, 4:05pm

Sat Jan 16, 3:05pm

Sat Jan 16, 2:04pm

Sat Jan 16, 1:04pm

Sat Jan 16, 12:04pm

Sat Jan 16, 11:04am

Sat Jan 16, 10:05am

Sat Jan 16, 9:04am

Sat Jan 16, 8:04am

Sat Jan 16, 7:04am

Sat Jan 16, 6:04am

Sat Jan 16, 5:04am

Sat Jan 16, 4:04am

Sat Jan 16, 3:05am

Sat Jan 16, 2:04am

Sat Jan 16, 1:04am

Sat Jan 16, 12:05am

Fri Jan 15, 11:05pm

Fri Jan 15, 10:04pm

Fri Jan 15, 9:04pm

Fri Jan 15, 8:04pm

Fri Jan 15, 7:05pm

Fri Jan 15, 6:05pm

Fri Jan 15, 5:05pm

Fri Jan 15, 4:05pm

Fri Jan 15, 3:04pm

Fri Jan 15, 2:05pm

Fri Jan 15, 1:04pm

Fri Jan 15, 12:05pm

Fri Jan 15, 11:04am

Fri Jan 15, 10:04am

Fri Jan 15, 9:05am

Fri Jan 15, 8:04am

Fri Jan 15, 7:04am

Fri Jan 15, 6:04am

Fri Jan 15, 5:05am

Fri Jan 15, 4:04am

Fri Jan 15, 3:04am

Fri Jan 15, 2:04am

Fri Jan 15, 1:04am

Fri Jan 15, 12:05am

Thu Jan 14, 11:04pm

Thu Jan 14, 10:04pm

Thu Jan 14, 9:04pm

Thu Jan 14, 8:05pm

Thu Jan 14, 7:04pm

Thu Jan 14, 6:04pm

Thu Jan 14, 5:04pm

Thu Jan 14, 4:05pm

Thu Jan 14, 3:04pm

Thu Jan 14, 2:04pm

Thu Jan 14, 1:04pm

Thu Jan 14, 12:05pm

Thu Jan 14, 11:05am

Thu Jan 14, 10:04am

Thu Jan 14, 9:04am

Thu Jan 14, 8:04am

Thu Jan 14, 6:04am

Thu Jan 14, 5:04am

Thu Jan 14, 4:04am

Thu Jan 14, 3:04am

Thu Jan 14, 2:04am

Thu Jan 14, 1:04am

Thu Jan 14, 12:04am

Wed Jan 13, 11:04pm

Wed Jan 13, 10:04pm

Wed Jan 13, 9:04pm

Wed Jan 13, 8:05pm

Wed Jan 13, 7:04pm

Wed Jan 13, 6:04pm

Wed Jan 13, 5:04pm

Wed Jan 13, 4:04pm

Wed Jan 13, 3:05pm

Wed Jan 13, 2:04pm

Wed Jan 13, 1:04pm

Wed Jan 13, 12:04pm

Wed Jan 13, 11:04am

Wed Jan 13, 10:04am

Wed Jan 13, 9:05am

Wed Jan 13, 8:04am

Wed Jan 13, 7:04am

Wed Jan 13, 6:04am

Wed Jan 13, 5:04am

Wed Jan 13, 4:04am

Wed Jan 13, 3:04am

Wed Jan 13, 2:04am

Wed Jan 13, 1:04am

Wed Jan 13, 12:05am

Tue Jan 12, 11:04pm

Tue Jan 12, 10:04pm

Tue Jan 12, 9:04pm

Tue Jan 12, 8:05pm

Tue Jan 12, 7:04pm

Meta data:

ID: 7ca60134-e429-4626-b517-dc085d06eb72
Link: https://api.weather.gov/products/7ca60134-e429-4626-b517-dc085d06eb72